Location: Alafon
(8.4500°N, 4.2333°E)
Time: 09:53:00
(UTC+00:00)

A-11 Canister half - Pass Details

Date: 13 August 2021
Orbit: 1515 x 1685 km, 47.2° (Epoch: 21 September)

Event Time Altitude Azimuth Distance (km) Brightness Sun altitude
Rises 12:05:20 0° 245° (WSW) 4,652 11.6 82.6°
Reaches altitude 10° 12:08:46 10° 255° (WSW) 3,678 11.2 82.1°
Maximum altitude 12:16:47 33° 315° (NW) 2,372 10.8 80.7°
Drops below altitude 10° 12:25:01 10° 16° (NNE) 3,761 11.2 79.1°
Sets 12:28:37 0° 26° (NNE) 4,772 11.6 78.3°
